Location: Newark
(32.5667°N, 57.6833°E)
Time: 18:57:49
(UTC+00:00)

ISS - Visible Passes

Search period start: 16 July 2019 00:00
Search period end: 26 July 2019 00:00
Orbit: 409 x 418 km, 51.6° (Epoch: 17 July)

Date Brightness Start Highest point End Pass type
(mag) Time Alt. Az. Time Alt. Az. Time Alt. Az.
16 Jul -3.4 16:21:33 10° SSW 16:24:41 39° SE 16:27:49 10° ENE visible
16 Jul -0.8 17:59:09 10° WNW 18:01:28 17° NW 18:03:47 10° N visible
17 Jul -3.4 00:30:05 10° NW 00:33:22 68° NE 00:36:39 10° SE visible
17 Jul -1.7 17:09:06 10° W 17:12:04 29° NW 17:15:01 10° NNE visible
17 Jul -2.0 23:41:00 10° NNW 23:44:04 34° NE 23:47:05 10° ESE visible
18 Jul -3.0 16:19:26 10° WSW 16:22:43 55° NW 16:26:01 10° NE visible
18 Jul -1.0 22:52:09 10° NNW 22:54:40 20° NE 22:57:10 10° E visible
19 Jul -3.1 00:28:24 10° WNW 00:31:22 31° SW 00:34:20 10° SSE visible
19 Jul -0.3 17:08:55 10° WNW 17:10:26 12° NNW 17:11:58 10° N visible
19 Jul -0.4 22:03:40 10° N 22:05:10 12° NNE 22:06:40 10° ENE visible
19 Jul -4.0 23:38:53 10° NW 23:42:10 69° SW 23:45:26 10° SE visible
20 Jul -0.8 16:18:24 10° W 16:20:56 20° NW 16:23:29 10° NNE visible
